User: anonymous   Login
Location: Unspecified
(0.0000°N, 0.0000°E)
Time: 10:08:36
(UTC+00:00)
Language:

CZ-3B DEB - Orbit

View from above orbital plane
View from above orbital plane
View from above satellite
View from above satellite

Ground track
Ground track

The orbit data is extracted from the following two-line orbital elements,

1 40186U 11077K   23328.41074497 -.00000036  00000-0  00000-0 0  9999
2 40186  26.2457 321.5420 7314571 216.1121 354.3977  1.88729758 81446
Epoch (UTC): 24 November 2023 09:51:28
Eccentricity: 0.7314571
inclination: 26.2457°
perigee height: 1049 km
apogee height: 41512 km
right ascension of ascending node: 321.5420°
argument of perigee: 216.1121°
revolutions per day: 1.88729758
mean anomaly at epoch: 354.3977°
orbit number at epoch: 8144

The dashed part of the orbit path shows where the satellite is in the earth's shadow,  

DLR